Volver al catálogo

MARCO-A

ActivoCienciaVLEO
NORAD 43458·PAYLOAD·🇺🇸 United States

Lanzado May 5, 2018 desde Vandenberg Space Force Base

Loading…

Próximos Pases (próximas 24 horas)

TLE

ObsoletoSource: Space-Track

Época: May 5, 2018, 12:23 UTC

1 43458U 18042B   18125.51663196 -.00002567 +81162-5 +00000-0 0  9997
2 43458 063.9700 108.8000 0014000 352.2000 089.5396 16.35832554000007

Sigue MARCO-A en tiempo real con AllMySat

Download on the App Store